Date String (YYYY-MM-DD hh:mm:ss) UTC,Instrument flags,absolute air pressure of the measurement (hPa),sample flow rate (lpm),inlet stack bypass flow (lpm),air temperature of the measurement (°C),ambient temperature measured by the external sensor (°C),aerosol sample conditioner tube jacket temperature (°C),OPC LED temperature (°C),internal box temperature (°C),relative humidity of the measurement (%),span deviation,mass concentration of particles derived from Lorenz-Mie calculation of OPC scattering (μg/m³),mass concentration of particles derived from Lorenz-Mie calculation of OPC scattering (μg/m³),mass concentration of particles derived from Lorenz-Mie calculation of OPC scattering (μg/m³)
DateTimeUTC,F1_M11,P_M11,Q1_M11,Q2_M11,T1_M11,T2_M11,T3_M11,T4_M11,T5_M11,U1_M11,ZSPAN_M11,X0_M11,X2_M11,X1_M11
2024-04-05 19:00:00,SystemResetWarning,0818.6,4.99,000.00,024.8,024.2,000.0,033.1,026.7,020.5,0002.2,0025.51,0009.73,0008.10
2024-04-05 19:01:00,SystemResetWarning,0818.6,4.99,000.00,024.8,024.3,000.0,033.1,026.7,020.2,0002.3,0027.54,0009.96,0008.28
2024-04-05 19:02:00,SystemResetWarning,0818.6,5.00,000.00,024.8,024.3,000.0,033.2,026.7,019.9,0002.1,0028.20,0010.23,0008.47
2024-04-05 19:03:00,SystemResetWarning,0818.5,5.00,000.00,024.9,024.3,000.0,033.2,026.7,019.9,0003.7,0028.90,0010.52,0008.70
2024-04-05 19:04:00,SystemResetWarning,0818.5,5.01,000.00,024.9,024.3,000.0,033.2,026.7,020.5,0003.5,0029.61,0010.73,0008.89
2024-04-05 19:05:00,SystemResetWarning,0818.5,5.00,000.00,024.9,024.3,000.0,033.2,026.7,020.2,0003.3,0030.59,0011.00,0009.15
2024-04-05 19:06:00,SystemResetWarning,0818.4,5.00,000.00,024.9,024.4,000.0,033.2,026.8,020.5,0003.4,0032.09,0011.38,0009.45
2024-04-05 19:07:00,SystemResetWarning,0818.4,4.99,000.00,024.9,024.4,000.0,033.3,026.8,020.1,0003.8,0034.43,0011.60,0009.65
2024-04-05 19:08:00,SystemResetWarning,0818.4,4.98,000.00,024.9,024.4,000.0,033.3,026.8,019.5,0003.4,0037.65,0011.83,0009.83
2024-04-05 19:09:00,SystemResetWarning,0818.4,5.01,000.00,025.0,024.4,000.0,033.3,026.8,019.8,0003.4,0038.68,0012.14,0010.07
2024-04-05 19:10:00,SystemResetWarning,0818.4,5.01,000.00,025.0,024.4,000.0,033.3,026.8,019.7,0004.0,0039.24,0012.45,0010.30
2024-04-05 19:11:00,SystemResetWarning,0818.4,5.00,000.00,025.0,024.5,000.0,033.3,026.9,019.8,0003.9,0041.88,0012.74,0010.51
2024-04-05 19:12:00,SystemResetWarning,0818.4,5.00,000.00,025.0,024.5,000.0,033.3,026.9,019.1,0003.6,0041.47,0012.84,0010.60
2024-04-05 19:13:00,SystemResetWarning,0818.4,4.99,000.00,025.0,024.5,000.0,033.4,026.9,018.7,0003.5,0041.59,0012.79,0010.63
2024-04-05 19:14:00,SystemResetWarning,0818.3,5.01,000.00,025.1,024.5,000.0,033.4,026.9,018.6,0002.9,0042.11,0012.73,0010.60
2024-04-05 19:15:00,SystemResetWarning,0818.3,5.00,000.00,025.1,024.5,000.0,033.4,026.9,018.9,0003.3,0043.59,0012.66,0010.55
2024-04-05 19:16:00,SystemResetWarning,0818.3,5.00,000.00,025.1,024.5,000.0,033.4,026.9,018.6,0003.9,0044.74,0012.52,0010.44
2024-04-05 19:17:00,SystemResetWarning,0818.3,5.00,000.00,025.1,024.6,000.0,033.4,027.0,018.6,0004.1,0045.33,0012.31,0010.24
2024-04-05 19:18:00,SystemResetWarning,0818.3,5.01,000.00,025.1,024.6,000.0,033.5,027.0,018.6,0003.5,0043.58,0012.14,0010.08
2024-04-05 19:19:00,SystemResetWarning,0818.3,5.00,000.00,025.2,024.6,000.0,033.5,027.0,018.8,0003.5,0040.88,0011.91,0009.89
2024-04-05 19:20:00,SystemResetWarning,0818.3,5.00,000.00,025.2,024.6,000.0,033.5,027.0,018.4,0003.9,0041.55,0011.63,0009.63
2024-04-05 19:21:00,SystemResetWarning,0818.3,5.00,000.00,025.2,024.6,000.0,033.5,027.1,018.4,0004.3,0040.35,0011.34,0009.35
2024-04-05 19:22:00,SystemResetWarning,0818.2,5.00,000.00,025.2,024.7,000.0,033.5,027.1,019.3,0004.7,0038.35,0011.11,0009.11
2024-04-05 19:23:00,SystemResetWarning,0818.3,5.00,000.00,025.2,024.7,000.0,033.6,027.1,019.3,0004.5,0038.75,0011.02,0008.96
2024-04-05 19:24:00,SystemResetWarning,0818.3,5.00,000.00,025.3,024.7,000.0,033.6,027.1,019.0,0004.2,0038.91,0011.07,0008.88
2024-04-05 19:25:00,SystemResetWarning,0818.3,5.00,000.00,025.3,024.7,000.0,033.6,027.1,019.2,0004.2,0038.89,0011.05,0008.80
2024-04-05 19:26:00,SystemResetWarning,0818.2,5.00,000.00,025.3,024.7,000.0,033.6,027.1,018.9,0003.9,0037.63,0011.00,0008.70
2024-04-05 19:27:00,SystemResetWarning,0818.3,4.99,000.00,025.3,024.7,000.0,033.6,027.2,018.5,0003.7,0036.75,0010.98,0008.62
2024-04-05 19:28:00,SystemResetWarning,0818.2,4.99,000.00,025.3,024.8,000.0,033.6,027.2,019.0,0003.5,0035.47,0010.95,0008.59
2024-04-05 19:29:00,SystemResetWarning,0818.2,5.01,000.00,025.3,024.8,000.0,033.7,027.2,019.4,0003.7,0035.45,0010.93,0008.56
2024-04-05 19:30:00,SystemResetWarning,0818.1,5.00,000.00,025.4,024.8,000.0,033.7,027.2,019.6,0003.9,0036.27,0010.99,0008.63
2024-04-05 19:31:00,SystemResetWarning,0818.1,5.00,000.00,025.4,024.8,000.0,033.7,027.2,019.6,0003.6,0034.14,0011.08,0008.75
2024-04-05 19:32:00,SystemResetWarning,0818.1,5.00,000.00,025.4,024.8,000.0,033.7,027.2,019.6,0003.2,0034.92,0011.21,0008.91
2024-04-05 19:33:00,SystemResetWarning,0818.0,5.01,000.00,025.4,024.9,000.0,033.7,027.3,019.5,0003.0,0035.36,0011.31,0009.05
2024-04-05 19:34:00,SystemResetWarning,0818.0,5.01,000.00,025.4,024.9,000.0,033.8,027.3,019.4,0002.7,0035.72,0011.35,0009.15
2024-04-05 19:35:00,SystemResetWarning,0818.0,4.99,000.00,025.5,024.9,000.0,033.8,027.3,019.2,0003.3,0035.42,0011.33,0009.21
2024-04-05 19:36:00,SystemResetWarning,0817.9,5.01,000.00,025.5,024.9,000.0,033.8,027.3,018.9,0003.7,0034.15,0011.31,0009.24
2024-04-05 19:37:00,SystemResetWarning,0818.0,5.00,000.00,025.5,024.9,000.0,033.8,027.3,019.0,0004.2,0034.42,0011.35,0009.29
2024-04-05 19:38:00,SystemResetWarning,0818.0,4.99,000.00,025.5,024.9,000.0,033.8,027.3,018.9,0004.1,0033.59,0011.30,0009.34
2024-04-05 19:39:00,SystemResetWarning,0818.0,5.00,000.00,025.5,025.0,000.0,033.8,027.4,018.7,0004.1,0033.67,0011.27,0009.36
2024-04-05 19:40:00,SystemResetWarning,0818.0,5.00,000.00,025.5,025.0,000.0,033.9,027.4,018.9,0004.5,0033.81,0011.21,0009.33
2024-04-05 19:41:00,SystemResetWarning,0817.9,5.01,000.00,025.5,025.0,000.0,033.9,027.4,018.8,0004.7,0033.11,0011.20,0009.27
2024-04-05 19:42:00,SystemResetWarning,0817.9,5.01,000.00,025.6,025.0,000.0,033.9,027.4,018.7,0004.7,0032.97,0011.13,0009.17
2024-04-05 19:43:00,SystemResetWarning,0817.9,4.99,000.00,025.6,025.0,000.0,033.9,027.4,018.8,0004.0,0033.95,0010.98,0009.04
2024-04-05 19:44:00,SystemResetWarning,0817.9,4.99,000.00,025.6,025.0,000.0,033.9,027.4,018.9,0004.2,0035.00,0010.88,0008.90
2024-04-05 19:45:00,SystemResetWarning,0817.9,5.00,000.00,025.6,025.0,000.0,033.9,027.4,018.9,0004.9,0034.97,0010.77,0008.78
2024-04-05 19:46:00,SystemResetWarning,0817.8,5.00,000.00,025.6,025.0,000.0,034.0,027.5,019.1,0005.1,0034.48,0010.68,0008.65
2024-04-05 19:47:00,SystemResetWarning,0817.7,5.00,000.00,025.6,025.1,000.0,034.0,027.5,018.4,0004.7,0035.78,0010.47,0008.49
2024-04-05 19:48:00,SystemResetWarning,0817.8,5.00,000.00,025.6,025.1,000.0,034.0,027.5,018.2,0004.1,0035.46,0010.33,0008.38
2024-04-05 19:49:00,SystemResetWarning,0817.8,5.00,000.00,025.7,025.1,000.0,034.0,027.5,017.8,0004.2,0034.61,0010.25,0008.26
2024-04-05 19:50:00,SystemResetWarning,0817.8,4.99,000.00,025.7,025.1,000.0,034.0,027.5,018.2,0004.2,0035.32,0010.19,0008.18
2024-04-05 19:51:00,SystemResetWarning,0817.8,4.99,000.00,025.7,025.1,000.0,034.0,027.5,018.4,0003.8,0034.77,0010.16,0008.16
2024-04-05 19:52:00,SystemResetWarning,0817.8,4.99,000.00,025.7,025.1,000.0,034.0,027.5,016.8,0003.3,0034.04,0010.07,0008.09
2024-04-05 19:53:00,SystemResetWarning,0817.8,5.00,000.00,025.7,025.1,000.0,034.1,027.5,015.7,0003.1,0034.59,0009.80,0007.89
2024-04-05 19:54:00,SystemResetWarning,0817.6,5.01,000.00,025.7,025.1,000.0,034.1,027.6,017.4,0003.8,0035.23,0009.64,0007.75
2024-04-05 19:55:00,SystemResetWarning,0817.6,5.01,000.00,025.7,025.1,000.0,034.1,027.6,017.9,0003.8,0033.67,0009.57,0007.67
2024-04-05 19:56:00,SystemResetWarning,0817.6,5.00,000.00,025.8,025.2,000.0,034.1,027.6,018.1,0003.0,0032.57,0009.50,0007.58
2024-04-05 19:57:00,SystemResetWarning,0817.6,5.00,000.00,025.8,025.2,000.0,034.1,027.6,017.2,0002.5,0032.20,0009.34,0007.45
2024-04-05 19:58:00,SystemResetWarning,0817.5,5.00,000.00,025.8,025.2,000.0,034.1,027.6,015.0,0002.1,0029.81,0009.13,0007.24
2024-04-05 19:59:00,SystemResetWarning,0817.5,4.99,000.00,025.8,025.2,000.0,034.1,027.6,014.6,0002.7,0029.33,0008.86,0007.00
